O3B MPOWER B

Last updated on Tue Jan 14 2025 00:02:04 GMT+0000 (Coordinated Universal Time)

1 62363U 24244B 24357.24664441 .00000056 00000+0 31602-2 0 9992 2 62363 8.8625 249.4036 1927754 192.9994 161.2451 7.30252239 314
UTC large
Height (km)
Speed (km/s)
/
Latitude / Longitude
Inclination (degrees)
Orbital Period (minutes)
Azimuth
Elevation
Range (km)
Doppler Factor

Next 0 passes for location: London (51.5072 / 0.1276)

Sorry there are no passes over London.